Date String (YYYY-MM-DD hh:mm:ss) UTC,Instrument flags,Ambient pressure (hPa),Sample flow (lpm),Bypass flow (lpm),Sample temperature (°C),Ambient temperature (°C),ASC tube jacket temperature (°C),LED temperature (°C),Box temperature (°C),Sample RH (%),Span deviation,Mass concentration (μg/m³),Mass concentration (μg/m³),Mass concentration (μg/m³)
DateTimeUTC,F1_M11,P_M11,Q1_M11,Q2_M11,T1_M11,T2_M11,T3_M11,T4_M11,T5_M11,U1_M11,ZSPAN_M11,X0_M11,X2_M11,X1_M11
2022-10-23 15:00:00,,0804.2,4.99,0.00,29.7,28.3,00.0,38.4,31.5,11.0,0000.0,0004.23,0001.87,0001.25
2022-10-23 15:01:00,,0804.2,4.99,0.00,29.7,28.3,00.0,38.5,31.6,11.1,0000.0,0004.36,0001.85,0001.22
2022-10-23 15:02:00,,0804.2,5.00,0.00,29.7,28.3,00.0,38.5,31.6,11.2,0000.0,0004.42,0001.84,0001.19
2022-10-23 15:03:00,,0804.2,5.02,0.00,29.7,28.3,00.0,38.5,31.6,11.1,0000.0,0004.99,0001.84,0001.15
2022-10-23 15:04:00,,0804.3,5.00,0.00,29.7,28.3,00.0,38.5,31.6,11.3,0000.0,0005.59,0001.78,0001.12
2022-10-23 15:05:00,,0804.4,4.99,0.00,29.7,28.4,00.0,38.5,31.6,11.2,0000.0,0006.11,0001.77,0001.10
2022-10-23 15:06:00,,0804.3,4.99,0.00,29.7,28.4,00.0,38.5,31.6,11.4,0000.0,0006.40,0001.73,0001.07
2022-10-23 15:07:00,,0804.4,5.02,0.00,29.8,28.4,00.0,38.5,31.6,11.4,0000.0,0007.18,0001.69,0001.05
2022-10-23 15:08:00,,0804.3,4.99,0.00,29.8,28.4,00.0,38.5,31.6,11.5,0000.0,0007.29,0001.73,0001.03
2022-10-23 15:09:00,,0804.4,4.99,0.00,29.8,28.4,00.0,38.6,31.7,11.5,0000.0,0007.30,0001.75,0001.03
2022-10-23 15:10:00,,0804.3,4.99,0.00,29.8,28.5,00.0,38.6,31.7,10.2,0000.0,0007.40,0001.82,0001.06
2022-10-23 15:11:00,,0804.3,5.02,0.00,29.8,28.5,00.0,38.6,31.7,09.5,0000.0,0007.32,0001.96,0001.13
2022-10-23 15:12:00,,0804.4,4.99,0.00,29.8,28.5,00.0,38.6,31.7,09.3,0000.0,0007.85,0002.09,0001.20
2022-10-23 15:13:00,,0804.5,5.00,0.00,29.8,28.5,00.0,38.6,31.7,09.5,0000.0,0008.65,0002.22,0001.28
2022-10-23 15:14:00,,0804.6,5.00,0.00,29.8,28.5,00.0,38.6,31.7,09.3,0000.0,0008.83,0002.35,0001.37
2022-10-23 15:15:00,,0804.6,5.02,0.00,29.9,28.5,00.0,38.6,31.7,09.3,0000.0,0009.12,0002.52,0001.46
2022-10-23 15:16:00,,0804.6,5.00,0.00,29.9,28.5,00.0,38.7,31.7,09.5,0000.0,0010.52,0002.69,0001.53
2022-10-23 15:17:00,,0804.6,4.99,0.00,29.9,28.6,00.0,38.7,31.7,09.5,0000.0,0011.76,0002.86,0001.62
2022-10-23 15:18:00,,0804.5,4.99,0.00,29.9,28.6,00.0,38.7,31.8,09.6,0000.0,0013.10,0003.02,0001.72
2022-10-23 15:19:00,,0804.4,5.00,0.00,29.9,28.6,00.0,38.7,31.8,09.4,0000.0,0013.33,0003.12,0001.79
2022-10-23 15:20:00,,0804.3,5.00,0.00,29.9,28.6,00.0,38.7,31.8,09.3,0000.0,0013.73,0003.19,0001.87
2022-10-23 15:21:00,,0804.2,4.99,0.00,29.9,28.6,00.0,38.7,31.8,09.4,0000.0,0014.74,0003.24,0001.91
2022-10-23 15:22:00,,0804.2,5.02,0.00,29.9,28.6,00.0,38.7,31.8,09.6,0000.0,0015.69,0003.28,0001.92
2022-10-23 15:23:00,,0804.2,5.00,0.00,30.0,28.6,00.0,38.7,31.9,09.6,0000.0,0015.55,0003.31,0001.94
2022-10-23 15:24:00,,0804.2,4.99,0.00,30.0,28.6,00.0,38.8,31.9,09.6,0000.0,0014.90,0003.29,0001.94
2022-10-23 15:25:00,,0804.3,5.02,0.00,30.0,28.7,00.0,38.8,31.9,09.6,0000.0,0014.85,0003.27,0001.92
2022-10-23 15:26:00,,0804.2,4.99,0.00,30.0,28.7,00.0,38.8,31.9,09.7,0000.0,0014.90,0003.25,0001.92
2022-10-23 15:27:00,,0804.2,4.99,0.00,30.0,28.7,00.0,38.8,31.9,09.7,0000.0,0013.47,0003.24,0001.93
2022-10-23 15:28:00,,0804.2,4.99,0.00,30.0,28.7,00.0,38.8,31.9,09.7,0000.0,0012.31,0003.23,0001.94
2022-10-23 15:29:00,,0804.2,5.01,0.00,30.0,28.7,00.0,38.8,31.9,09.8,0000.0,0010.93,0003.25,0001.94
2022-10-23 15:30:00,,0804.2,5.00,0.00,30.1,28.7,00.0,38.8,31.9,09.8,0000.0,0011.13,0003.24,0001.94
2022-10-23 15:31:00,,0804.3,4.99,0.00,30.1,28.7,00.0,38.9,32.0,09.9,0000.0,0012.06,0003.24,0001.95
2022-10-23 15:32:00,,0804.3,5.00,0.00,30.1,28.8,00.0,38.9,32.0,09.9,0000.0,0011.70,0003.23,0001.96
2022-10-23 15:33:00,,0804.3,5.00,0.00,30.1,28.8,00.0,38.9,31.9,09.5,0000.0,0010.81,0003.20,0001.96
2022-10-23 15:34:00,,0804.2,5.01,0.00,30.1,28.8,00.0,38.9,32.0,09.4,0000.0,0010.45,0003.16,0001.95
2022-10-23 15:35:00,,0804.2,5.00,0.00,30.1,28.8,00.0,38.9,32.0,09.5,0000.0,0010.31,0003.14,0001.95
2022-10-23 15:36:00,,0804.2,4.99,0.00,30.1,28.8,00.0,38.9,32.0,09.6,0000.0,0010.02,0003.15,0001.96
2022-10-23 15:37:00,,0804.1,4.99,0.00,30.1,28.8,00.0,38.9,32.0,09.6,0000.0,0009.36,0003.16,0001.97
2022-10-23 15:38:00,,0804.1,4.99,0.00,30.2,28.8,00.0,38.9,32.0,09.6,0000.0,0009.42,0003.13,0001.96
2022-10-23 15:39:00,,0804.1,5.00,0.00,30.2,28.9,00.0,39.0,32.0,09.7,0000.0,0009.32,0003.12,0001.94
2022-10-23 15:40:00,,0804.2,5.00,0.00,30.2,28.9,00.0,39.0,32.0,09.7,0000.0,0009.12,0003.11,0001.94
2022-10-23 15:41:00,,0804.2,5.00,0.00,30.2,28.9,00.0,39.0,32.1,09.7,0000.0,0009.01,0003.08,0001.95
2022-10-23 15:42:00,,0804.1,5.00,0.00,30.2,28.9,00.0,39.0,32.1,09.7,0000.0,0008.36,0003.09,0001.93
2022-10-23 15:43:00,,0804.1,5.02,0.00,30.2,28.9,00.0,39.0,32.1,09.8,0000.0,0008.44,0003.09,0001.93
2022-10-23 15:44:00,,0804.1,4.99,0.00,30.2,28.9,00.0,39.0,32.1,09.9,0000.0,0008.80,0003.11,0001.93
2022-10-23 15:45:00,,0804.1,4.99,0.00,30.3,28.9,00.0,39.0,32.0,09.9,0000.0,0008.86,0003.13,0001.95
2022-10-23 15:46:00,,0804.1,5.02,0.00,30.3,29.0,00.0,39.1,32.0,09.9,0000.0,0008.92,0003.14,0001.97
2022-10-23 15:47:00,,0804.1,5.00,0.00,30.3,29.0,00.0,39.1,32.1,10.0,0000.0,0009.54,0003.15,0001.97
2022-10-23 15:48:00,,0804.1,4.99,0.00,30.3,29.0,00.0,39.1,32.1,10.1,0000.0,0010.39,0003.16,0001.96
2022-10-23 15:49:00,,0804.2,5.00,0.00,30.3,29.0,00.0,39.1,32.2,10.0,0000.0,0011.56,0003.16,0001.96
2022-10-23 15:50:00,,0804.1,5.01,0.00,30.3,29.0,00.0,39.1,32.2,10.0,0000.0,0011.97,0003.17,0001.98
2022-10-23 15:51:00,,0804.1,4.99,0.00,30.4,29.0,00.0,39.1,32.2,10.0,0000.0,0011.93,0003.14,0001.98
2022-10-23 15:52:00,,0804.1,5.00,0.00,30.4,29.1,00.0,39.1,32.2,10.1,0000.0,0011.80,0003.17,0001.99
2022-10-23 15:53:00,,0804.0,5.01,0.00,30.4,29.1,00.0,39.2,32.2,10.2,0000.0,0011.39,0003.19,0002.00
2022-10-23 15:54:00,,0804.0,4.98,0.00,30.4,29.1,00.0,39.2,32.2,10.2,0000.0,0010.91,0003.23,0002.00
2022-10-23 15:55:00,,0804.0,4.99,0.00,30.4,29.1,00.0,39.2,32.2,10.1,0000.0,0010.61,0003.23,0002.01
2022-10-23 15:56:00,,0804.1,5.01,0.00,30.4,29.1,00.0,39.2,32.2,10.2,0000.0,0010.58,0003.23,0002.02
2022-10-23 15:57:00,,0804.1,5.00,0.00,30.4,29.2,00.0,39.2,32.3,10.3,0000.0,0010.72,0003.25,0002.01
2022-10-23 15:58:00,,0804.1,5.00,0.00,30.5,29.2,00.0,39.2,32.3,10.2,0000.0,0010.63,0003.29,0002.01
2022-10-23 15:59:00,,0804.2,5.01,0.00,30.5,29.2,00.0,39.2,32.3,10.2,0000.0,0009.94,0003.30,0002.01
